Weather History for Paso Robles, CA

Change the Weather History Date:

Monday, November 18, 2013

  Actual Average Record
Temperature  
Mean Temperature 51 °F 52 °F  
Max Temperature 66 °F 66 °F 86 °F (1989)
Min Temperature 36 °F 37 °F 19 °F (1975)
Degree Days  
Heating Degree Days 14 13  
Month to date heating degree days 158 194  
Since 1 July heating degree days 308 364  
Cooling Degree Days 0 0  
Month to date cooling degree days 0 0  
Year to date cooling degree days 1173 926  
Growing Degree Days 1 (Base 50)    
Moisture  
Dew Point 38 °F    
Average Humidity 64    
Maximum Humidity 85    
Minimum Humidity 42    
Precipitation  
Precipitation 0.00 in 0.04 in 0.51 in (1982)
Month to date precipitation T 0.60  
Year to date precipitation 1.48 10.34  
Since 1 July precipitation 0.02 1.55  
Sea Level Pressure  
Sea Level Pressure 30.11 in    
Wind  
Wind Speed 3 mph (SSW)    
Max Wind Speed 13 mph    
Max Gust Speed 16 mph    
Visibility 10 miles    
Events      
T = Trace of Precipitation, MM = Missing Value Source: NWS Daily Summary

Daily Weather History Graph

Daily Weather History Graph

Search for Another Location

Airport:

Trip Planner

Search our weather history database for the weather conditions in past years. The results will help you decide how hot, cold, wet, or windy it might be!

Date:

Astronomy

Nov. 18, 2013 Rise Set
Actual Time 6:41 AM PST 4:53 PM PST
Civil Twilight 6:14 AM PST 5:20 PM PST
Nautical Twilight 5:43 AM PST 5:51 PM PST
Astronomical Twilight 5:12 AM PST 6:22 PM PST
Moon 6:00 PM PST (11/18) 7:34 AM PST (11/18)
Length of Visible Light 11h 06m
Length of Day
10h 11m
Full, 99% of the Moon is Illuminated
Nov 18
Full
Nov 25
Last Quarter
Dec 2
New
Dec 9
First Quarter
Dec 17
Full

Hourly Weather History & Observations

Time (PST) Temp. Windchill Dew Point Humidity Pressure Visibility Wind Dir Wind Speed Gust Speed Precip Events Conditions
12:53 AM 39.0 °F - 33.1 °F 79% 30.09 in 10.0 mi Calm Calm - N/A   Clear
1:53 AM 39.9 °F - 34.0 °F 79% 30.10 in 10.0 mi Calm Calm - N/A   Clear
2:53 AM 39.9 °F - 33.1 °F 77% 30.10 in 10.0 mi Calm Calm - N/A   Clear
3:53 AM 39.9 °F - 33.1 °F 77% 30.11 in 10.0 mi Calm Calm - N/A   Clear
4:53 AM 37.9 °F - 33.1 °F 83% 30.11 in 10.0 mi Calm Calm - N/A   Clear
5:53 AM 36.0 °F - 30.0 °F 79% 30.14 in 10.0 mi Calm Calm - N/A   Clear
6:53 AM 37.0 °F 34.5 °F 32.0 °F 82% 30.15 in 10.0 mi SE 3.5 mph - N/A   Clear
7:53 AM 41.0 °F - 34.0 °F 76% 30.17 in 10.0 mi Calm Calm - N/A   Clear
8:53 AM 46.0 °F - 36.0 °F 68% 30.17 in 10.0 mi Calm Calm - N/A   Clear
9:53 AM 50.0 °F - 37.0 °F 61% 30.17 in 10.0 mi Calm Calm - N/A   Clear
10:53 AM 55.0 °F - 39.0 °F 55% 30.15 in 10.0 mi Calm Calm - N/A   Clear
11:53 AM 60.1 °F - 41.0 °F 49% 30.11 in 10.0 mi South 3.5 mph - N/A   Clear
12:53 PM 64.9 °F - 41.0 °F 42% 30.07 in 10.0 mi Calm Calm - N/A   Clear
1:53 PM 66.0 °F - 43.0 °F 43% 30.06 in 10.0 mi Variable 6.9 mph - N/A   Clear
2:53 PM 64.0 °F - 45.0 °F 50% 30.05 in 10.0 mi SSW 10.4 mph - N/A   Clear
3:53 PM 63.0 °F - 44.1 °F 50% 30.06 in 10.0 mi SSW 11.5 mph - N/A   Clear
4:53 PM 57.9 °F - 42.1 °F 56% 30.07 in 10.0 mi South 8.1 mph - N/A   Clear
5:53 PM 55.9 °F - 42.1 °F 60% 30.09 in 10.0 mi South 6.9 mph - N/A   Clear
6:53 PM 55.0 °F - 42.1 °F 62% 30.10 in 10.0 mi South 6.9 mph - N/A   Clear
7:53 PM 53.1 °F - 41.0 °F 64% 30.13 in 10.0 mi SW 4.6 mph - N/A   Clear
8:53 PM 51.1 °F - 41.0 °F 68% 30.12 in 10.0 mi SW 4.6 mph - N/A   Clear
9:53 PM 50.0 °F - 41.0 °F 71% 30.13 in 10.0 mi West 4.6 mph - N/A   Clear
10:53 PM 48.9 °F - 41.0 °F 74% 30.12 in 10.0 mi West 3.5 mph - N/A   Clear
11:53 PM 46.9 °F - 41.0 °F 80% 30.11 in 10.0 mi Calm Calm - N/A   Clear